FW5354 Weather Reports


time (UTC)temp
C
wind
direction
speed
KPH
gust
KPH
rain 1hr
cm
rain 24hr
cm
rain mn
cm
humidity
%
barometer
mb
20260510020027 25 117 0.0 0.0 0.00 0.00 0.00 62 1007.0
20260510014526 25 117 0.0 0.0 0.00 0.00 0.00 62 1006.4
20260510013124 26 103 0.0 1.6 0.00 0.00 0.00 59 1006.6
20260510011530 26 103 0.0 1.6 0.00 0.00 0.00 58 1006.5
20260510010021 26 103 1.6 6.4 0.00 0.00 0.00 56 1006.4
20260510004526 27 103 0.0 3.2 0.00 0.00 0.00 54 1006.1
20260510003120 27 100 3.2 6.4 0.00 0.00 0.00 51 1006.3
20260510001523 27 95 3.2 12.9 0.00 0.00 0.00 53 1006.1
20260510000028 30 124 0.0 3.2 0.00 0.00 0.00 62 1005.9
20260509234521 31 142 0.0 0.0 0.00 0.00 0.00 63 1005.6
20260509233122 31 142 0.0 0.0 0.00 0.00 0.00 59 1005.6
20260509231515 31 142 0.0 1.6 0.00 0.00 0.00 60 1005.4
20260509230016 31 142 0.0 1.6 0.00 0.00 0.00 58 1005.4
20260509224514 32 172 0.0 1.6 0.00 0.00 0.00 58 1005.2
20260509223115 33 150 0.0 0.0 0.00 0.00 0.00 55 1005.4
20260509221519 33 163 0.0 0.0 0.00 0.00 0.00 53 1005.1
20260509220019 33 119 0.0 0.0 0.00 0.00 0.00 55 1005.1
20260509214513 33 130 0.0 1.6 0.00 0.00 0.00 55 1005.2
20260509213112 32 148 0.0 3.2 0.00 0.00 0.00 57 1005.2
20260509211510 33 163 0.0 4.8 0.00 0.00 0.00 54 1005.4
20260509210009 32 171 0.0 3.2 0.00 0.00 0.00 59 1005.5
20260509204506 32 185 0.0 4.8 0.00 0.00 0.00 60 1005.8
20260509203116 32 146 0.0 4.8 0.00 0.00 0.00 59 1006.1
20260509201504 32 139 0.0 4.8 0.00 0.00 0.00 61 1006.2
20260509200001 32 136 0.0 0.0 0.00 0.05 0.00 63 1006.4
20260509194557 31 146 0.0 4.8 0.00 0.05 0.00 67 1006.5
20260509193101 31 157 0.0 4.8 0.00 0.05 0.00 68 1006.7
20260509191606 30 141 0.0 3.2 0.00 0.05 0.00 68 1006.7
20260509190056 31 169 0.0 3.2 0.00 0.05 0.00 66 1006.8
20260509184558 31 118 0.0 0.0 0.00 0.05 0.00 68 1006.9
20260509183055 30 117 0.0 0.0 0.00 0.05 0.00 69 1007.3
20260509181548 30 167 0.0 3.2 0.00 0.05 0.00 71 1007.3
20260509180044 30 110 0.0 1.6 0.00 0.05 0.00 70 1007.8
20260509174559 29 108 0.0 3.2 0.00 0.05 0.00 71 1007.9
20260509173049 29 103 0.0 6.4 0.00 0.05 0.00 73 1007.9
20260509171539 29 118 0.0 6.4 0.00 0.05 0.00 73 1007.9
20260509170035 28 98 1.6 3.2 0.00 0.05 0.00 73 1007.8
20260509164532 27 115 0.0 0.0 0.00 0.05 0.00 75 1007.8
20260509163037 26 125 0.0 0.0 0.00 0.05 0.00 76 1008.1
20260509161530 26 125 0.0 0.0 0.00 0.05 0.00 75 1008.3
20260509160027 25 125 0.0 0.0 0.00 0.05 0.05 73 1008.3
20260509154526 25 128 0.0 0.0 0.00 0.05 0.05 73 1008.5
20260509153034 25 128 0.0 0.0 0.00 0.05 0.05 75 1008.4
20260509151525 26 128 0.0 0.0 0.00 0.05 0.05 72 1008.4
20260509150022 25 128 0.0 0.0 0.00 0.05 0.05 71 1008.3
20260509144529 25 121 0.0 0.0 0.00 0.05 0.05 69 1007.8
20260509143022 25 121 0.0 0.0 0.00 0.05 0.05 65 1007.7
20260509141522 25 121 0.0 0.0 0.00 0.05 0.05 62 1007.8
20260509140021 24 121 0.0 0.0 0.00 0.05 0.05 60 1007.2
20260509134521 24 121 0.0 0.0 0.00 0.05 0.05 59 1007.8
20260509133021 24 121 0.0 0.0 0.00 0.05 0.05 57 1008.1
20260509131517 23 121 0.0 0.0 0.00 0.05 0.05 55 1008.3
20260509130029 23 121 0.0 0.0 0.00 0.05 0.05 54 1008.6
20260509124519 23 121 0.0 0.0 0.00 0.05 0.05 54 1008.1
20260509123018 23 121 0.0 1.6 0.00 0.05 0.05 55 1008.0
20260509121523 23 121 0.0 0.0 0.00 0.05 0.05 55 1007.9
20260509120014 23 184 0.0 0.0 0.00 0.05 0.05 56 1007.8
20260509114515 23 184 0.0 0.0 0.00 0.05 0.05 56 1007.8
20260509113015 23 184 0.0 0.0 0.00 0.05 0.05 56 1008.1
20260509111515 23 184 0.0 1.6 0.00 0.05 0.05 56 1008.1
20260509110015 23 184 0.0 0.0 0.00 0.05 0.05 56 1008.1
20260509104514 23 103 0.0 0.0 0.00 0.05 0.05 57 1007.7
20260509103013 23 102 0.0 0.0 0.00 0.05 0.05 58 1007.7
20260509101519 23 102 0.0 0.0 0.00 0.05 0.05 58 1007.5
20260509100012 23 102 0.0 0.0 0.00 0.05 0.05 58 1006.7
20260509094511 23 209 0.0 0.0 0.00 0.05 0.05 60 1006.9
20260509093010 23 209 0.0 0.0 0.00 0.05 0.05 60 1007.3
20260509091512 23 209 0.0 0.0 0.00 0.05 0.05 60 1007.6
20260509090011 23 209 0.0 0.0 0.00 0.05 0.05 60 1007.6
20260509084510 23 209 0.0 0.0 0.00 0.05 0.05 60 1007.5
20260509083028 23 209 0.0 0.0 0.00 0.05 0.05 61 1007.6
20260509081511 23 209 0.0 0.0 0.00 0.05 0.05 61 1007.5
20260509080009 23 209 0.0 1.6 0.00 0.05 0.05 61 1007.3
20260509074509 23 209 0.0 1.6 0.00 0.05 0.05 61 1007.5
20260509073015 23 209 0.0 1.6 0.00 0.05 0.05 61 1007.4
20260509071506 23 104 0.0 1.6 0.00 0.05 0.05 61 1007.2
20260509070006 23 104 0.0 0.0 0.00 0.05 0.05 62 1007.4
20260509064506 23 104 0.0 0.0 0.00 0.05 0.05 62 1007.5
20260509063013 23 104 0.0 0.0 0.00 0.05 0.05 62 1007.7
20260509061505 23 104 0.0 0.0 0.00 0.05 0.05 63 1007.9
20260509060005 23 104 0.0 0.0 0.00 0.05 0.05 63 1008.2
20260509054504 23 104 0.0 0.0 0.00 0.05 0.05 63 1008.0
20260509053006 23 118 0.0 1.6 0.00 0.05 0.05 63 1008.0
20260509051501 23 120 0.0 0.0 0.00 0.05 0.05 63 1008.0
20260509050002 23 119 0.0 1.6 0.00 0.05 0.05 64 1008.0
20260509044700 23 126 0.0 1.6 0.00 0.05 0.05 64 1008.2
20260509043139 23 137 0.0 0.0 0.00 0.05 0.05 64 1008.2
20260509041600 23 81 0.0 0.0 0.00 0.05 0.05 64 1008.2
20260509034558 23 107 0.0 3.2 0.00 0.05 0.05 65 1007.7
20260509033057 23 113 0.0 3.2 0.00 0.05 0.05 66 1007.5
20260509031601 23 119 0.0 6.4 0.00 0.05 0.05 67 1007.6
20260509030112 23 121 0.0 1.6 0.00 0.05 0.05 68 1007.6
20260509024558 23 107 0.0 3.2 0.00 0.05 0.05 69 1007.3
20260509023058 23 147 0.0 1.6 0.00 0.05 0.05 70 1007.1
20260509021554 23 105 0.0 6.4 0.00 0.05 0.05 70 1007.1